KB9HUO Weather Reports


Display with metric or nautical units.
time (UTC)temp
F
wind
direction
speed
MPH
gust
MPH
rain 1hr
in
rain 24hr
in
rain mn
in
humidity
%
barometer
mb
20260906093707 73 345 1.0 1.0 0.00 0.00 0.00 96 1014.1
20260906093201 73 340 1.0 1.0 0.00 0.00 0.00 96 1014.2
20260906092657 73 30 3.0 3.0 0.00 0.00 0.00 96 1014.2
20260906092156 73 300 0.0 1.0 0.00 0.00 0.00 96 1014.2
20260906091652 73 319 1.0 1.0 0.00 0.00 0.00 96 1014.5
20260906091149 73 333 0.0 1.0 0.00 0.00 0.00 96 1014.3
20260906090644 73 309 0.0 0.0 0.00 0.00 0.00 96 1014.2
20260906090144 73 321 1.0 1.0 0.00 0.00 0.00 96 1014.1
20260906085642 73 312 0.0 0.0 0.00 0.00 0.00 96 1014.5
20260906085137 73 304 0.0 0.0 0.00 0.00 0.00 96 1014.3
20260906084633 73 54 2.0 2.0 0.00 0.00 0.00 96 1014.2
20260906084131 73 306 0.0 1.0 0.00 0.00 0.00 96 1014.1
20260906083626 73 299 0.0 0.0 0.00 0.00 0.00 96 1014.1
20260906083121 73 295 0.0 0.0 0.00 0.00 0.00 96 1014.0
20260906082617 73 295 0.0 1.0 0.00 0.00 0.00 96 1014.0
20260906082112 73 319 1.0 1.0 0.00 0.00 0.00 96 1013.9
20260906081608 73 323 1.0 1.0 0.00 0.00 0.00 96 1013.8
20260906081103 72 321 0.0 0.0 0.00 0.00 0.00 96 1014.0
20260906080600 72 321 0.0 0.0 0.00 0.00 0.00 96 1014.0
20260906080055 72 321 0.0 0.0 0.00 0.00 0.00 96 1013.9
20260906075555 73 321 0.0 0.0 0.00 0.00 0.00 96 1013.9
20260906075049 73 321 0.0 0.0 0.00 0.00 0.00 96 1014.0
20260906074544 73 321 0.0 0.0 0.00 0.00 0.00 96 1013.9
20260906074043 72 321 0.0 0.0 0.00 0.00 0.00 96 1013.9
20260906073538 72 321 0.0 0.0 0.00 0.00 0.00 97 1013.7
20260906073034 72 321 0.0 0.0 0.00 0.00 0.00 96 1013.8
20260906072529 72 321 0.0 0.0 0.00 0.00 0.00 96 1013.9
20260906072025 72 321 0.0 0.0 0.00 0.00 0.00 96 1013.9
20260906071521 72 321 0.0 0.0 0.00 0.00 0.00 97 1014.1
20260906071016 72 321 0.0 0.0 0.00 0.00 0.00 97 1014.0
20260906070512 72 321 0.0 0.0 0.00 0.00 0.00 97 1013.8
20260906070008 72 322 0.0 0.0 0.00 0.00 0.00 97 1014.0
20260906065502 72 324 0.0 1.0 0.00 0.00 0.00 97 1014.2
20260906064957 72 308 0.0 0.0 0.00 0.00 0.00 97 1013.9
20260906064453 72 252 1.0 1.0 0.00 0.00 0.00 97 1013.9
20260906063948 71 248 0.0 0.0 0.00 0.00 0.00 97 1014.1
20260906063443 71 247 0.0 0.0 0.00 0.00 0.00 97 1014.1
20260906062943 71 246 0.0 0.0 0.00 0.00 0.00 97 1014.3
20260906062438 71 246 0.0 0.0 0.00 0.00 0.00 97 1014.3
20260906061933 71 246 0.0 0.0 0.00 0.00 0.00 97 1014.3
20260906061430 71 246 0.0 0.0 0.00 0.00 0.00 97 1014.2
20260906060924 72 246 0.0 0.0 0.00 0.00 0.00 97 1014.2
20260906060421 72 246 0.0 0.0 0.00 0.00 0.00 97 1014.4
20260906055918 72 246 0.0 0.0 0.00 0.00 0.00 97 1014.2
20260906055413 71 246 0.0 0.0 0.00 0.00 0.00 97 1014.3
20260906054908 71 246 0.0 0.0 0.00 0.00 0.00 97 1014.2
20260906054403 71 246 0.0 0.0 0.00 0.00 0.00 97 1014.3
20260906053859 71 246 0.0 0.0 0.00 0.00 0.00 97 1014.5
20260906053355 71 246 0.0 0.0 0.00 0.00 0.00 97 1014.4
20260906052850 71 246 0.0 0.0 0.00 0.00 0.00 97 1014.3
20260906052347 71 246 0.0 0.0 0.00 0.00 0.00 97 1014.3
20260906051843 71 246 0.0 0.0 0.00 0.00 0.00 97 1014.3
20260906051343 71 246 0.0 0.0 0.00 0.00 0.00 97 1014.2
20260906050838 71 246 0.0 0.0 0.00 0.00 0.00 97 1014.2
20260906050333 71 246 0.0 0.0 0.00 0.00 0.00 97 1014.2
20260906045832 71 246 0.0 0.0 0.00 0.00 0.00 97 1014.2
20260906045326 71 246 0.0 0.0 0.00 0.00 0.00 96 1014.1
20260906044823 71 246 0.0 0.0 0.00 0.00 0.00 96 1014.1
20260906044322 71 246 0.0 0.0 0.00 0.00 0.00 96 1014.0
20260906043818 72 246 0.0 0.0 0.00 0.00 0.00 96 1014.0
20260906043315 72 246 0.0 0.0 0.00 0.00 0.00 96 1013.7
20260906042809 72 246 0.0 0.0 0.00 0.00 0.00 96 1013.8
20260906042308 72 246 0.0 0.0 0.00 0.00 0.00 96 1013.6
20260906041804 72 246 0.0 0.0 0.00 0.00 0.00 96 1013.7
20260906041258 72 246 0.0 0.0 0.00 0.00 0.00 96 1013.6
20260906040754 72 246 0.0 0.0 0.00 0.00 0.00 96 1013.6
20260906040249 72 246 0.0 0.0 0.00 0.00 0.00 96 1013.4
20260906035744 72 246 0.0 0.0 0.00 0.02 0.02 96 1013.6
20260906035234 72 246 0.0 0.0 0.00 0.02 0.02 96 1013.6
20260906034733 72 246 0.0 0.0 0.00 0.02 0.02 95 1013.7
20260906034228 72 246 0.0 0.0 0.00 0.02 0.02 95 1013.9
20260906033724 72 246 0.0 0.0 0.00 0.02 0.02 95 1013.7
20260906033224 72 246 0.0 0.0 0.00 0.02 0.02 95 1013.7
20260906032721 73 319 1.0 1.0 0.00 0.02 0.02 95 1013.8
20260906032221 73 291 0.0 0.0 0.00 0.02 0.02 96 1013.7
20260906031716 73 291 0.0 0.0 0.00 0.02 0.02 96 1013.6
20260906031211 72 295 0.0 0.0 0.00 0.02 0.02 96 1013.6
20260906030711 72 314 0.0 0.0 0.00 0.02 0.02 96 1013.7
20260906030206 72 266 0.0 0.0 0.00 0.02 0.02 95 1013.4
20260906025706 73 266 0.0 0.0 0.00 0.02 0.02 95 1013.4
20260906025200 73 266 0.0 0.0 0.00 0.02 0.02 95 1013.2
20260906024654 73 266 0.0 0.0 0.00 0.02 0.02 95 1013.3
20260906024154 73 266 0.0 0.0 0.00 0.02 0.02 95 1013.5
20260906023650 73 266 0.0 0.0 0.00 0.02 0.02 95 1013.3
20260906023150 73 266 0.0 0.0 0.00 0.02 0.02 95 1013.5
20260906022644 73 266 0.0 0.0 0.00 0.02 0.02 95 1013.4
20260906022141 73 266 0.0 0.0 0.00 0.02 0.02 95 1013.4
20260906021636 73 265 0.0 0.0 0.00 0.02 0.02 94 1013.2
20260906021134 73 265 0.0 0.0 0.00 0.02 0.02 94 1013.0
20260906020629 73 265 0.0 0.0 0.00 0.02 0.02 94 1013.0
20260906020124 73 265 0.0 0.0 0.00 0.02 0.02 94 1013.1
20260906015618 73 265 0.0 0.0 0.00 0.02 0.02 94 1013.0
20260906015117 73 265 0.0 0.0 0.00 0.02 0.02 93 1013.0
20260906014612 73 265 0.0 0.0 0.00 0.02 0.02 93 1012.8
20260906014108 74 265 0.0 0.0 0.00 0.02 0.02 92 1012.9
20260906013603 74 265 0.0 0.0 0.00 0.02 0.02 92 1012.8
20260906013059 74 265 0.0 0.0 0.00 0.02 0.02 92 1012.8
20260906012559 74 265 0.0 0.0 0.00 0.02 0.02 91 1012.7
20260906012059 74 265 0.0 0.0 0.00 0.02 0.02 91 1012.7
20260906011555 74 265 0.0 0.0 0.00 0.02 0.02 90 1012.4
20260906011049 74 265 0.0 0.0 0.00 0.02 0.02 90 1012.5
20260906010545 74 265 0.0 0.0 0.00 0.02 0.02 90 1012.3
20260906010041 75 265 0.0 0.0 0.00 0.02 0.02 89 1012.2
20260906005539 75 265 0.0 0.0 0.00 0.02 0.02 89 1012.3
20260906005038 75 265 0.0 0.0 0.00 0.02 0.02 88 1012.4
20260906004533 75 265 0.0 0.0 0.00 0.02 0.02 88 1012.5
20260906004028 75 265 0.0 0.0 0.00 0.02 0.02 87 1012.4
20260906003523 75 265 0.0 0.0 0.00 0.02 0.02 87 1012.5
20260906003019 76 265 0.0 0.0 0.00 0.02 0.02 86 1012.6
20260906002519 76 266 0.0 0.0 0.00 0.02 0.02 85 1012.5
20260906002013 76 266 0.0 0.0 0.00 0.02 0.02 84 1012.9
20260906001509 77 266 0.0 0.0 0.00 0.02 0.02 83 1012.7
20260906000958 77 264 0.0 0.0 0.00 0.02 0.02 82 1012.6
20260906000455 77 264 0.0 0.0 0.00 0.02 0.02 81 1012.6
20260905235954 78 264 0.0 0.0 0.00 0.02 0.02 80 1012.7
20260905235448 78 264 0.0 0.0 0.00 0.02 0.02 78 1012.8
20260905234943 78 264 0.0 0.0 0.00 0.02 0.02 77 1013.0
20260905234438 79 264 0.0 0.0 0.00 0.02 0.02 75 1012.6
20260905233933 79 264 0.0 0.0 0.00 0.02 0.02 73 1012.8
20260905233429 79 264 0.0 0.0 0.00 0.02 0.02 72 1012.9
20260905232927 79 265 0.0 0.0 0.00 0.02 0.02 71 1013.0
20260905232423 79 260 0.0 0.0 0.00 0.02 0.02 71 1012.7
20260905231919 79 311 0.0 1.0 0.00 0.02 0.02 68 1012.8
20260905231414 78 256 0.0 0.0 0.00 0.02 0.02 70 1012.9
20260905230905 78 358 2.0 2.0 0.00 0.02 0.02 72 1013.0
20260905230403 78 311 1.0 1.0 0.00 0.02 0.02 74 1013.0
20260905225901 78 66 2.0 2.0 0.00 0.02 0.02 75 1013.2
20260905225357 80 308 1.0 2.0 0.00 0.02 0.02 74 1013.3
20260905224852 81 19 4.0 6.0 0.00 0.02 0.02 72 1013.4
20260905224348 83 310 1.0 1.0 0.00 0.02 0.02 77 1013.0
20260905223842 85 310 1.0 1.0 0.00 0.02 0.02 76 1013.0
20260905223339 87 307 2.0 2.0 0.00 0.02 0.02 73 1012.9
20260905222834 89 351 2.0 2.0 0.00 0.02 0.02 69 1012.5
20260905222333 89 286 0.0 0.0 0.00 0.02 0.02 66 1012.3
20260905221829 90 286 0.0 0.0 0.00 0.02 0.02 65 1012.2
20260905221326 91 286 0.0 0.0 0.00 0.02 0.02 63 1012.2
20260905220821 92 286 0.0 0.0 0.00 0.02 0.02 61 1012.2
20260905220318 92 286 0.0 0.0 0.00 0.02 0.02 59 1012.3
20260905215816 93 286 0.0 1.0 0.00 0.02 0.02 57 1012.0
20260905215313 93 282 0.0 0.0 0.00 0.02 0.02 59 1012.0
20260905214809 93 309 1.0 1.0 0.00 0.02 0.02 57 1012.3
20260905214304 93 298 0.0 0.0 0.00 0.02 0.02 57 1012.1
20260905213759 93 279 0.0 0.0 0.00 0.02 0.02 58 1011.9
20260905213255 93 277 0.0 0.0 0.00 0.02 0.02 61 1012.1
20260905212750 93 289 0.0 0.0 0.00 0.02 0.02 60 1012.4
20260905212249 93 284 0.0 1.0 0.00 0.02 0.02 60 1012.5
20260905211749 92 86 0.0 1.0 0.00 0.02 0.02 58 1012.5
20260905211244 92 296 1.0 1.0 0.00 0.02 0.02 59 1012.5
20260905210741 92 292 0.0 1.0 0.00 0.02 0.02 62 1012.5
20260905210240 92 285 0.0 0.0 0.00 0.02 0.02 58 1012.5
20260905205739 93 286 0.0 0.0 0.00 0.02 0.02 59 1012.5
20260905205234 93 278 0.0 0.0 0.00 0.02 0.02 57 1012.7
20260905204733 93 284 0.0 0.0 0.00 0.02 0.02 57 1012.7
20260905204229 93 281 0.0 0.0 0.00 0.02 0.02 58 1012.5
20260905203729 93 259 0.0 0.0 0.00 0.02 0.02 56 1012.8
20260905203224 93 347 1.0 2.0 0.00 0.02 0.02 56 1012.9
20260905202720 94 302 2.0 3.0 0.00 0.02 0.02 57 1012.9
20260905202216 94 287 0.0 0.0 0.00 0.02 0.02 58 1012.9
20260905201711 93 276 0.0 0.0 0.00 0.02 0.02 56 1013.0
20260905201210 93 16 1.0 2.0 0.00 0.02 0.02 59 1013.0
20260905200706 93 260 0.0 0.0 0.00 0.02 0.02 57 1013.0
20260905200201 93 271 0.0 0.0 0.00 0.02 0.02 56 1013.2
20260905195659 93 296 0.0 1.0 0.00 0.02 0.02 58 1013.0
20260905195154 93 285 1.0 1.0 0.00 0.02 0.02 56 1013.2
20260905194644 93 346 2.0 2.0 0.00 0.02 0.02 57 1013.2
20260905194143 94 310 1.0 1.0 0.00 0.02 0.02 56 1013.4
20260905193638 94 299 1.0 1.0 0.00 0.02 0.02 55 1013.5
20260905193133 95 283 0.0 0.0 0.00 0.02 0.02 56 1013.4
20260905192628 94 261 0.0 0.0 0.00 0.02 0.02 57 1013.6
20260905192125 94 252 0.0 1.0 0.00 0.02 0.02 58 1013.5
20260905191624 95 248 0.0 1.0 0.00 0.02 0.02 57 1013.4
20260905191122 95 249 0.0 1.0 0.00 0.02 0.02 58 1013.5
20260905190620 94 266 0.0 0.0 0.00 0.02 0.02 60 1013.8
20260905190115 95 252 0.0 0.0 0.00 0.02 0.02 56 1013.8
20260905185614 95 244 1.0 1.0 0.00 0.02 0.02 56 1014.1
20260905185114 95 258 0.0 0.0 0.00 0.02 0.02 57 1014.2
20260905184608 95 249 0.0 0.0 0.00 0.02 0.02 57 1014.2
20260905184107 94 235 0.0 1.0 0.00 0.02 0.02 57 1014.0
20260905183606 94 253 0.0 0.0 0.00 0.02 0.02 57 1014.2
20260905183102 95 257 0.0 1.0 0.00 0.02 0.02 55 1014.4
20260905182601 95 269 0.0 0.0 0.00 0.02 0.02 56 1014.5
20260905182056 94 252 0.0 0.0 0.00 0.02 0.02 57 1014.4
20260905181556 94 244 1.0 1.0 0.00 0.02 0.02 56 1014.5
20260905181055 94 213 2.0 2.0 0.00 0.02 0.02 57 1014.5
20260905180550 94 277 0.0 0.0 0.00 0.02 0.02 57 1014.4
20260905180046 93 244 1.0 2.0 0.00 0.02 0.02 57 1014.6
20260905175545 93 287 2.0 2.0 0.00 0.02 0.02 56 1014.8
20260905175041 93 297 1.0 1.0 0.00 0.02 0.02 57 1014.5
20260905174536 92 250 0.0 0.0 0.00 0.02 0.02 59 1014.8
20260905174031 92 209 2.0 2.0 0.00 0.02 0.02 59 1014.8
20260905173529 93 236 2.0 3.0 0.00 0.02 0.02 57 1015.1
20260905173029 93 253 1.0 1.0 0.00 0.02 0.02 57 1015.1
20260905172527 93 202 2.0 4.0 0.00 0.02 0.02 57 1015.0
20260905172023 93 257 1.0 1.0 0.00 0.02 0.02 56 1015.0
20260905171519 93 257 0.0 1.0 0.00 0.02 0.02 57 1015.0
20260905171015 92 245 1.0 1.0 0.00 0.02 0.02 58 1015.2
20260905170511 92 249 0.0 1.0 0.00 0.02 0.02 58 1015.0
20260905170006 91 246 3.0 4.0 0.00 0.02 0.02 60 1015.2
20260905165501 91 246 1.0 1.0 0.00 0.02 0.02 60 1015.2
20260905164956 90 248 1.0 1.0 0.00 0.02 0.02 62 1015.3
20260905164455 90 212 3.0 4.0 0.00 0.02 0.02 60 1015.3
20260905163950 90 238 2.0 2.0 0.00 0.02 0.02 60 1015.5
20260905163447 90 202 3.0 3.0 0.00 0.02 0.02 63 1015.3
20260905162943 89 246 2.0 3.0 0.00 0.02 0.02 62 1015.3
20260905162438 89 241 1.0 1.0 0.00 0.02 0.02 62 1015.6
20260905161932 89 246 2.0 4.0 0.00 0.02 0.02 61 1015.6
20260905161432 89 240 2.0 2.0 0.00 0.02 0.02 62 1015.7
20260905160930 89 243 2.0 3.0 0.00 0.02 0.02 62 1015.5
20260905160424 88 228 2.0 3.0 0.00 0.02 0.02 63 1015.7
20260905155918 88 226 3.0 3.0 0.00 0.02 0.02 65 1015.8
20260905155418 87 242 2.0 3.0 0.00 0.02 0.02 65 1015.5
20260905154917 87 244 2.0 3.0 0.00 0.02 0.02 65 1015.7
20260905154413 86 233 2.0 2.0 0.00 0.02 0.02 66 1015.8
20260905153908 86 235 3.0 3.0 0.00 0.02 0.02 66 1015.8
20260905153405 86 239 2.0 2.0 0.00 0.02 0.02 65 1015.9
20260905152904 85 225 3.0 4.0 0.00 0.02 0.02 67 1016.0
20260905152403 85 149 2.0 3.0 0.00 0.02 0.02 69 1015.8
20260905151858 85 230 3.0 3.0 0.00 0.02 0.02 69 1015.8
20260905151354 84 204 2.0 3.0 0.00 0.02 0.02 70 1015.9
20260905150854 84 222 2.0 3.0 0.00 0.02 0.02 71 1016.1
20260905150349 83 214 3.0 3.0 0.00 0.02 0.02 70 1015.9
20260905145846 83 223 3.0 4.0 0.00 0.02 0.02 72 1016.3
20260905145341 83 237 2.0 3.0 0.00 0.02 0.02 72 1016.1
20260905144839 82 214 2.0 3.0 0.00 0.02 0.02 73 1016.2
20260905144335 82 3 2.0 3.0 0.00 0.02 0.02 74 1016.1
20260905143833 82 231 3.0 3.0 0.00 0.02 0.02 74 1016.1
20260905143328 82 204 2.0 3.0 0.00 0.02 0.02 74 1016.3
20260905142827 81 209 2.0 2.0 0.00 0.02 0.02 78 1016.3
20260905142321 81 214 1.0 2.0 0.00 0.02 0.02 79 1016.5
20260905141812 80 229 3.0 4.0 0.00 0.02 0.02 79 1016.4
20260905141307 79 207 2.0 3.0 0.00 0.02 0.02 80 1016.4
20260905140802 80 220 2.0 2.0 0.00 0.02 0.02 79 1016.6
20260905140302 80 226 2.0 2.0 0.00 0.02 0.02 78 1016.4
20260905135801 79 308 1.0 1.0 0.00 0.02 0.02 78 1016.7
20260905135252 79 228 1.0 1.0 0.00 0.02 0.02 79 1016.5
20260905134751 79 235 3.0 4.0 0.00 0.02 0.02 79 1016.3
20260905134245 78 228 1.0 1.0 0.00 0.02 0.02 83 1016.4
20260905133740 78 207 3.0 4.0 0.00 0.02 0.02 85 1016.5
20260905133235 78 242 1.0 2.0 0.00 0.02 0.02 86 1016.6
20260905132734 77 200 2.0 3.0 0.00 0.02 0.02 87 1016.6
20260905132229 77 275 1.0 1.0 0.00 0.02 0.02 90 1016.6
20260905131725 77 260 0.0 0.0 0.00 0.02 0.02 92 1016.5
20260905131220 77 80 1.0 1.0 0.00 0.02 0.02 95 1016.6
20260905130720 76 224 1.0 2.0 0.00 0.02 0.02 97 1016.4
20260905130219 76 19 5.0 7.0 0.00 0.02 0.02 98 1016.5
20260905125714 76 271 0.0 0.0 0.00 0.02 0.02 98 1015.7
20260905125204 76 270 0.0 0.0 0.00 0.02 0.02 98 1015.6
20260905124701 76 270 0.0 0.0 0.00 0.02 0.02 98 1015.6
20260905124156 76 270 0.0 0.0 0.00 0.02 0.02 98 1015.8
20260905123651 75 271 0.0 0.0 0.00 0.02 0.02 98 1015.9
20260905123148 75 271 0.0 0.0 0.00 0.02 0.02 98 1015.7
20260905122648 75 271 0.0 0.0 0.00 0.02 0.02 98 1015.5
20260905122143 75 271 0.0 0.0 0.00 0.02 0.02 98 1015.6
20260905121642 74 271 0.0 0.0 0.00 0.02 0.02 98 1015.3
20260905121138 74 270 0.0 0.0 0.00 0.02 0.02 98 1015.4
20260905120637 74 271 0.0 0.0 0.00 0.02 0.02 98 1015.2
20260905120132 74 271 0.0 0.0 0.00 0.02 0.02 98 1015.5
20260905115631 74 270 0.0 0.0 0.00 0.02 0.02 98 1015.5
20260905115127 74 271 0.0 0.0 0.00 0.02 0.02 98 1015.5
20260905114626 74 271 0.0 0.0 0.00 0.02 0.02 98 1015.5
20260905114125 74 271 0.0 0.0 0.00 0.02 0.02 98 1015.6
20260905113620 74 271 0.0 0.0 0.00 0.02 0.02 98 1015.3
20260905113116 74 271 0.0 0.0 0.00 0.02 0.02 98 1015.4
20260905112618 74 271 0.0 0.0 0.00 0.02 0.02 98 1015.5
20260905112112 74 271 0.0 0.0 0.00 0.02 0.02 98 1015.3
20260905111606 74 272 0.0 0.0 0.00 0.02 0.02 98 1015.3
20260905111105 74 272 0.0 0.0 0.00 0.02 0.02 98 1015.3
20260905110604 74 271 0.0 0.0 0.00 0.02 0.02 98 1015.2
20260905110100 74 273 0.0 0.0 0.05 0.02 0.02 97 1014.9
20260905105554 74 273 0.0 0.0 0.05 0.02 0.02 97 1014.9
20260905105053 74 273 0.0 0.0 0.00 0.01 0.01 97 1014.5
20260905104550 74 274 0.0 0.0 0.00 0.01 0.01 97 1014.8
20260905104049 74 279 0.0 0.0 0.07 0.01 0.01 97 1014.5
20260905103544 74 303 0.0 1.0 0.07 0.01 0.01 97 1014.5
20260905103041 73 262 0.0 0.0 0.07 0.01 0.01 97 1014.5
20260905102536 73 298 0.0 0.0 0.00 0.00 0.00 97 1014.9
20260905102032 73 250 0.0 0.0 0.00 0.00 0.00 97 1014.6
20260905101531 73 250 0.0 0.0 0.00 0.00 0.00 97 1014.5
20260905101029 73 250 0.0 0.0 0.00 0.00 0.00 97 1014.9
20260905100526 73 250 0.0 0.0 0.00 0.00 0.00 97 1014.9
20260905100025 74 250 0.0 0.0 0.00 0.00 0.00 96 1014.6
20260905095520 74 250 0.0 0.0 0.00 0.00 0.00 96 1014.6
20260905095015 74 250 0.0 0.0 0.00 0.00 0.00 96 1014.8
20260905094510 74 250 0.0 0.0 0.00 0.00 0.00 96 1014.9
20260905094009 74 250 0.0 0.0 0.00 0.00 0.00 96 1014.8